DW9750 Weather Reports


time (UTC)temp
C
wind
direction
speed
KPH
gust
KPH
rain 1hr
cm
rain 24hr
cm
rain mn
cm
humidity
%
barometer
mb
20260510180056 30 104 6.4 16.1 0.00 0.00 0.00 54 1011.2
20260510174553 30 111 6.4 14.5 0.00 0.00 0.00 57 1011.2
20260510173101 30 99 4.8 25.7 0.00 0.00 0.00 58 1011.4
20260510171555 30 62 6.4 16.1 0.00 0.00 0.00 56 1011.5
20260510170056 30 222 4.8 12.9 0.00 0.00 0.00 58 1011.5
20260510164549 30 151 8.0 17.7 0.00 0.00 0.00 58 1011.5
20260510163046 29 109 3.2 14.5 0.00 0.00 0.00 59 1011.3
20260510161544 29 163 4.8 11.3 0.00 0.00 0.00 60 1011.2
20260510160040 28 92 3.2 11.3 0.00 0.00 0.00 62 1011.2
20260510154542 27 144 4.8 11.3 0.00 0.00 0.00 63 1011.0
20260510153039 27 190 6.4 17.7 0.00 0.00 0.00 63 1010.9
20260510151531 26 222 4.8 17.7 0.00 0.00 0.00 68 1010.6
20260510150027 26 258 4.8 12.9 0.00 0.00 0.00 69 1010.6
20260510144529 25 265 6.4 16.1 0.00 0.00 0.00 71 1010.6
20260510143031 25 239 6.4 12.9 0.00 0.00 0.00 72 1010.5
20260510141517 24 228 4.8 11.3 0.00 0.00 0.00 77 1010.6
20260510140012 23 201 0.0 0.0 0.00 0.00 0.00 81 1010.5
20260510134508 22 294 0.0 0.0 0.00 0.00 0.00 82 1010.4
20260510133007 21 69 0.0 0.0 0.00 0.00 0.00 83 1010.4
20260510131504 21 69 0.0 0.0 0.00 0.00 0.00 84 1010.2
20260510130001 20 69 0.0 0.0 0.00 0.00 0.00 90 1010.1
20260510124601 19 69 0.0 0.0 0.00 0.00 0.00 90 1009.9
20260510123115 18 69 0.0 0.0 0.00 0.00 0.00 91 1009.9
20260510121559 18 69 0.0 0.0 0.00 0.00 0.00 94 1009.7
20260510120057 17 69 0.0 0.0 0.00 0.00 0.00 92 1009.6
20260510114555 17 69 0.0 0.0 0.00 0.00 0.00 90 1009.6
20260510113053 17 69 0.0 0.0 0.00 0.00 0.00 89 1009.6
20260510111551 18 69 0.0 0.0 0.00 0.00 0.00 88 1009.6
20260510110049 18 69 0.0 0.0 0.00 0.00 0.00 90 1009.5
20260510104549 18 123 0.0 0.0 0.00 0.00 0.00 88 1009.3
20260510103048 18 123 0.0 4.8 0.00 0.00 0.00 90 1009.2
20260510101546 18 16 0.0 3.2 0.00 0.00 0.00 90 1009.2
20260510100142 18 87 0.0 1.6 0.00 0.00 0.00 87 1009.2
20260510094541 19 87 0.0 0.0 0.00 0.00 0.00 85 1009.4
20260510093037 20 90 1.6 6.4 0.00 0.00 0.00 84 1009.4
20260510091535 20 99 1.6 6.4 0.00 0.00 0.00 85 1009.3
20260510090035 20 82 0.0 3.2 0.00 0.00 0.00 84 1009.3
20260510084534 20 92 3.2 6.4 0.00 0.00 0.00 84 1009.2
20260510083033 20 89 0.0 4.8 0.00 0.00 0.00 84 1009.1
20260510081539 21 79 0.0 3.2 0.00 0.00 0.00 81 1009.1
20260510080031 21 83 1.6 4.8 0.00 0.00 0.00 82 1009.1
20260510074530 21 60 0.0 0.0 0.00 0.00 0.00 83 1009.1
20260510073033 21 66 0.0 3.2 0.00 0.00 0.00 83 1009.1
20260510071529 21 66 0.0 1.6 0.00 0.00 0.00 83 1009.1
20260510070029 21 177 0.0 4.8 0.00 0.00 0.00 84 1009.2
20260510064532 20 66 0.0 4.8 0.00 0.00 0.00 85 1009.1
20260510063034 20 343 0.0 1.6 0.00 0.00 0.00 85 1009.2
20260510061525 20 343 0.0 0.0 0.00 0.00 0.00 85 1009.3
20260510060024 21 343 0.0 1.6 0.00 0.00 0.00 83 1009.3
20260510054519 21 343 0.0 1.6 0.00 0.00 0.00 81 1009.3
20260510053017 21 343 0.0 0.0 0.00 0.00 0.00 80 1009.2
20260510051515 21 343 0.0 1.6 0.00 0.00 0.00 79 1009.1
20260510050012 22 335 0.0 0.0 0.00 0.00 0.00 79 1009.0
20260510044512 22 335 0.0 1.6 0.00 0.00 0.00 78 1008.9
20260510043011 22 82 1.6 6.4 0.00 0.00 0.00 75 1008.8
20260510041511 23 75 0.0 0.0 0.00 0.00 0.00 75 1008.7
20260510040015 23 75 1.6 4.8 0.00 0.00 0.00 74 1008.7
20260510034509 23 82 1.6 4.8 0.00 0.00 0.00 72 1008.7
20260510033011 24 73 1.6 6.4 0.00 0.00 0.00 71 1008.6
20260510031515 24 92 3.2 9.7 0.00 0.00 0.00 70 1008.5
20260510030011 25 143 3.2 8.0 0.00 0.00 0.00 68 1008.4
20260510024507 25 85 3.2 8.0 0.00 0.00 0.00 67 1008.2
20260510023007 26 94 4.8 9.7 0.00 0.00 0.00 65 1008.0
20260510021509 26 81 3.2 8.0 0.00 0.00 0.00 63 1007.8
20260510020007 27 86 3.2 8.0 0.00 0.00 0.00 62 1007.5
20260510014507 27 93 6.4 12.9 0.00 0.00 0.00 60 1007.2
20260510013004 27 92 6.4 11.3 0.00 0.00 0.00 61 1006.9
20260510011504 28 98 4.8 11.3 0.00 0.00 0.00 59 1006.7
20260510010003 29 66 4.8 11.3 0.00 0.00 0.00 56 1006.5
20260510004501 31 77 4.8 11.3 0.00 0.00 0.00 49 1006.2
20260510003106 32 109 0.0 1.6 0.00 0.00 0.00 42 1006.0
20260510001600 32 199 0.0 4.8 0.00 0.00 0.00 42 1006.0
20260510000100 33 131 0.0 4.8 0.00 0.00 0.00 37 1006.0
20260509234605 33 270 0.0 4.8 0.00 0.00 0.00 35 1006.0
20260509233057 33 196 0.0 4.8 0.00 0.00 0.00 35 1006.0
20260509231558 33 262 0.0 6.4 0.00 0.00 0.00 33 1006.0
20260509230056 33 267 1.6 4.8 0.00 0.00 0.00 39 1006.0
20260509224559 33 211 3.2 8.0 0.00 0.00 0.00 42 1006.1
20260509223051 33 225 1.6 9.7 0.00 0.00 0.00 40 1006.0
20260509221602 33 273 1.6 8.0 0.00 0.00 0.00 41 1006.2
20260509220047 32 166 1.6 6.4 0.00 0.00 0.00 43 1006.2
20260509214548 33 293 3.2 9.7 0.00 0.00 0.00 43 1006.3
20260509213045 32 208 4.8 9.7 0.00 0.00 0.00 42 1006.3
20260509211545 33 272 1.6 12.9 0.00 0.00 0.00 42 1006.5
20260509210038 32 244 3.2 8.0 0.00 0.00 0.00 46 1006.8
20260509204536 32 283 4.8 11.3 0.00 0.00 0.00 45 1007.0
20260509203033 31 241 4.8 12.9 0.00 0.00 0.00 49 1007.1
20260509201536 31 234 1.6 11.3 0.00 0.00 0.00 52 1007.3
20260509200029 31 192 6.4 12.9 0.00 0.00 0.00 53 1007.8
20260509194526 31 265 3.2 14.5 0.00 0.00 0.00 55 1008.0
20260509193022 30 251 3.2 14.5 0.00 0.00 0.00 55 1008.4
20260509191521 30 2 3.2 11.3 0.00 0.00 0.00 56 1008.5
20260509190021 30 252 4.8 11.3 0.00 0.00 0.00 60 1008.5
20260509184522 29 245 6.4 14.5 0.00 0.00 0.00 63 1008.6
20260509183015 29 262 8.0 17.7 0.00 0.00 0.00 59 1008.9
20260509181512 29 224 3.2 9.7 0.00 0.00 0.00 65 1009.1